Regional Weather Roundup
Issued by NWS

Home | Current Version | Previous Version | Text Only | Print | Product List | Glossary On
Versions: 1 2 3 4 5 6 7 8 9 10 11 12 13 14 15 16 17 18 19 20 21 22 23 24 25 26 27
000
ASUS45 KTFX 011810
RWRMT
MONTANA REGIONAL WEATHER ROUNDUP
NATIONAL WEATHER SERVICE GREAT FALLS MT
1200 PM MDT SUN MAY 01 2016

NOTE: "FAIR" INDICATES FEW OR NO CLOUDS BELOW 12000 FEET WITH NO
SIGNIFICANT WEATHER AND/OR OBSTRUCTIONS TO VISIBILITY.

MTZ001>007-043-011900-
WEST OF THE DIVIDE

CITY           SKY/WX    TMP DP  RH WIND       PRES   REMARKS
KALISPELL      SUNNY     60  35  39 E3        30.24F
MISSOULA       SUNNY     59  35  40 SE15G21   30.25F
BUTTE          SUNNY     48  27  44 SE14      30.28F
MULLAN PASS    SUNNY     48  30  49 VRB6      30.24F
ANACONDA         N/A     52  28  40 CALM      30.27F
DEER LODGE       N/A     54  32  43 SE7       30.28F
EUREKA           N/A     55  36  47 N3        30.28F
HAMILTON         N/A     54  32  43 NW5       30.24F
LIBBY            N/A     59  36  41 W5        30.25F
PLAINS           N/A     60  41  49 CALM      30.23F
$$

MTZ008-052>055-011900-
SOUTHWEST MONTANA

CITY           SKY/WX    TMP DP  RH WIND       PRES   REMARKS
BOZEMAN        SUNNY     56  29  35 N10       30.27F
DILLON         SUNNY     50  30  46 N7        30.25F
ENNIS          SUNNY     50  30  46 VRB6G12   30.31F
TWIN BRIDGES     N/A     54  25  32 NW12      30.21F
$$

MTZ009-010-012-014-046-048-049-054-011900-
EAST SLOPES AND CENTRAL MONTANA

CITY           SKY/WX    TMP DP  RH WIND       PRES   REMARKS
CUT BANK       SUNNY     55  33  43 S9        30.29F
GREAT FALLS    SUNNY     54  30  40 CALM      30.30F
HELENA         SUNNY     55  29  36 MISG      30.27F
CHOTEAU          N/A     54  34  47 VRB5G12   30.30F
CONRAD           N/A     57  39  51 E6        30.29F
$$

MTZ011-013-016-021-045-047-050-051-011900-
NORTH CENTRAL MONTANA

CITY           SKY/WX    TMP DP  RH WIND       PRES   REMARKS
HAVRE          SUNNY     60  36  40 VRB5      30.30F
LEWISTOWN      MOSUNNY   57  27  31 E9        30.31F
N BAR RANCH      N/A     52  27  37 VRB7      30.34F
CHINOOK          N/A     61  34  36 CALM      30.30F
$$

MTZ017>020-022>027-061-062-011900-
NORTHEAST MONTANA

CITY           SKY/WX    TMP DP  RH WIND       PRES   REMARKS
GLASGOW        SUNNY     61  31  32 VRB7      30.30F
JORDAN           N/A     60  29  30 MISG      30.31F
SIDNEY         SUNNY     63  30  29 NE6       30.30F
WOLF POINT     SUNNY     64  29  26 MISG      30.30F
PLENTYWOOD       N/A     61  25  25 SE5       30.29F
POPLAR           N/A     61  27  27 CALM      30.30F
SCOBEY           N/A     62  26  25 W1        30.26F
$$

MTZ028>42-056>058-011900-
SOUTHCENTRAL AND SOUTHEAST MONTANA

CITY           SKY/WX    TMP DP  RH WIND       PRES   REMARKS
BAKER          SUNNY     57  27  31 VRB3      30.32F
BILLINGS       MOSUNNY   56  29  35 VRB6      30.32F
LIVINGSTON     SUNNY     55  30  38 E20G29    30.27F
MILES CITY     SUNNY     58  29  33 VRB5      30.32F
FORSYTH          N/A     57  28  33 E3        30.32F
LAUREL           N/A     56  28  34 N5        30.27F
ROUNDUP          N/A     57  29  34 N2        30.20F
$$

REGIONAL REPORTS...DAKOTAS

CITY           SKY/WX    TMP DP  RH WIND       PRES   REMARKS
WILLISTON      SUNNY     62  27  26 VRB3      30.29F
MINOT          SUNNY     64  26  23 W8        30.28F
DICKINSON      SUNNY     58  28  32 VRB6      30.27F
BEACH            N/A     57  27  30 W3        30.33F
CROSBY           N/A     61  25  25 NW3       30.31F
TIOGA            N/A     57  25  28 W3        30.33F
WATFORD CITY     N/A     59  28  31 NE3       30.29F
BISMARCK       SUNNY     59  27  29 N8        30.28F
GRAND FORKS    SUNNY     62  30  29 E7        30.25F
FARGO          SUNNY     61  29  29 NW10      30.23F
BUFFALO SD       N/A     58  28  32 NE9       30.24F
RAPID CITY     MOSUNNY   54  31  41 N14G22    30.31F
$$

REGIONAL REPORTS...WYOMING/IDAHO/WASHINGTON

CITY           SKY/WX    TMP DP  RH WIND       PRES   REMARKS
GILLETTE       MOSUNNY   49  28  44 VRB7      30.33S
SHERIDAN       SUNNY     55  28  35 VRB5      30.32F
BUFFALO WY       N/A    N/A N/A N/A MISG      30.33F
CODY           SUNNY     48  27  43 CALM      30.31F
YELLOWSTONE LA   N/A     41  22  46 VRB5      30.31S
IDAHO FALLS    SUNNY     55  27  34 VRB3      30.21F
SALMON         SUNNY     55  30  38 N5        30.20F
BOISE          SUNNY     61  40  45 NW3       30.13F
SPOKANE        MOSUNNY   63  39  41 N12       30.20F
$$

REGIONAL REPORTS...ALBERTA

CITY           SKY/WX    TMP DP  RH WIND       PRES   REMARKS
EDMONTON       MOSUNNY   66  32  28 W8G23     30.16F
CALGARY        MOSUNNY   63  32  31 NW3       30.24F
LETHBRIDGE     MOSUNNY   61  30  31 S6        30.26F
MEDICINE HAT     N/A     63  37  39 S13G21    30.27F
WATERTON GATE    N/A     59  28  31 NE7         N/A
CARDSTON         N/A     63  36  36 S3          N/A
MILK RIVER       N/A     59  32  36 S8          N/A
$$

REGIONAL REPORTS...SASKATCHEWAN

CITY           SKY/WX    TMP DP  RH WIND       PRES   REMARKS
SWIFT CURRENT  MOSUNNY   63  34  34 W13G21    30.25F
REGINA         MOSUNNY   68  30  24 W10G20    30.22F
SASKATOON      PTSUNNY   68  34  28 W16G23    30.19F
CYPRESS HILLS    N/A     54  27  35 SW5         N/A
VAL MARIE        N/A     61  25  25 W5          N/A
ROCKGLEN         N/A     61  28  29 NW6         N/A
ASSINIBOIA       N/A     70  21  16 NW12G17     N/A
$$




USA.gov is the U.S. government's official web portal to all federal, state and local government web resources and services.